Weather History for Robstown, TX

Change the Weather History Date:

Friday, November 9, 2012

  Actual Average (KCRP) Record (KCRP)
Temperature  
Mean Temperature 76 °F 68 °F  
Max Temperature 86 °F 78 °F 90 °F (1979)
Min Temperature 66 °F 58 °F 34 °F (1991)
Degree Days  
Heating Degree Days 0 2  
Month to date heating degree days 13  
Since 1 July heating degree days 23  
Cooling Degree Days 11 5  
Month to date cooling degree days 52  
Year to date cooling degree days 3403  
Growing Degree Days 26 (Base 50)    
Moisture  
Dew Point 62 °F    
Average Humidity 64    
Maximum Humidity 84    
Minimum Humidity 37    
Precipitation  
Precipitation 0.00 in 0.08 in 2.19 in (1986)
Month to date precipitation 0.76  
Year to date precipitation 28.72  
Snow  
Snow 0.00 in - - ()
Month to date snowfall  
Since 1 July snowfall  
Since 1 September snowfall  
Snow Depth -    
Sea Level Pressure  
Sea Level Pressure 30.03 in    
Wind  
Wind Speed 11 mph (SSE)    
Max Wind Speed 25 mph    
Max Gust Speed 33 mph    
Visibility 10 miles    
Events      
T = Trace of Precipitation, MM = Missing Value Source: NWS Daily Summary

Daily Weather History Graph

Daily Weather History Graph

Search for Another Location

Airport:

Trip Planner

Search our weather history database for the weather conditions in past years. The results will help you decide how hot, cold, wet, or windy it might be!

Date:

Astronomy

Nov. 09, 2012 Rise Set
Actual Time 6:47 AM CST 5:41 PM CST
Civil Twilight 6:23 AM CST 6:05 PM CST
Nautical Twilight 5:55 AM CST 6:33 PM CST
Astronomical Twilight 5:27 AM CST 7:01 PM CST
Moon 2:11 AM CST (11/9) 2:34 PM CST (11/9)
Length of Visible Light 11h 42m
Length of Day
10h 53m
Waning Crescent, 23% of the Moon is Illuminated
Nov 9
Waning Crescent
Nov 13
New
Nov 20
First Quarter
Nov 28
Full
Dec 6
Last Quarter

Hourly Weather History & Observations

Time (CST) Temp. Heat Index Dew Point Humidity Pressure Visibility Wind Dir Wind Speed Gust Speed Precip Events Conditions
12:15 AM 70.7 °F - 63.3 °F 77% 30.06 in 10.0 mi SSE 5.8 mph - N/A   Clear
12:35 AM 70.7 °F - 63.5 °F 78% 30.06 in 10.0 mi SSE 5.8 mph - N/A   Clear
12:55 AM 70.7 °F - 63.5 °F 78% 30.06 in 10.0 mi SSE 6.9 mph - N/A   Clear
1:15 AM 70.2 °F - 63.0 °F 78% 30.05 in 10.0 mi SSE 5.8 mph - N/A   Clear
1:35 AM 69.8 °F - 62.8 °F 78% 30.05 in 10.0 mi SSE 5.8 mph - N/A   Clear
1:55 AM 69.8 °F - 62.8 °F 78% 30.05 in 10.0 mi SSE 5.8 mph - N/A   Clear
2:15 AM 69.8 °F - 63.0 °F 79% 30.05 in 10.0 mi SSE 5.8 mph - N/A   Clear
2:35 AM 69.6 °F - 62.6 °F 78% 30.05 in 10.0 mi SSE 4.6 mph - N/A   Clear
2:55 AM 67.5 °F - 61.7 °F 82% 30.05 in 10.0 mi SSE 5.8 mph - N/A   Scattered Clouds
3:15 AM 69.3 °F - 62.8 °F 80% 30.04 in 10.0 mi SSE 5.8 mph - N/A   Mostly Cloudy
3:35 AM 68.2 °F - 61.9 °F 80% 30.04 in 10.0 mi SE 5.8 mph - N/A   Mostly Cloudy
3:55 AM 67.5 °F - 61.9 °F 82% 30.03 in 10.0 mi SE 4.6 mph - N/A   Scattered Clouds
4:15 AM 67.1 °F - 61.7 °F 83% 30.03 in 10.0 mi SE 6.9 mph - N/A   Scattered Clouds
4:35 AM 67.5 °F - 61.7 °F 82% 30.02 in 10.0 mi SE 8.1 mph - N/A   Scattered Clouds
4:55 AM 67.5 °F - 61.3 °F 81% 30.02 in 10.0 mi SE 8.1 mph - N/A   Scattered Clouds
5:15 AM 66.4 °F - 61.2 °F 83% 30.02 in 10.0 mi SE 5.8 mph - N/A   Scattered Clouds
5:55 AM 66.7 °F - 61.9 °F 84% 30.03 in 10.0 mi SE 5.8 mph - N/A   Mostly Cloudy
6:15 AM 67.3 °F - 62.1 °F 83% 30.04 in 10.0 mi SE 6.9 mph - N/A   Scattered Clouds
6:35 AM 67.1 °F - 62.1 °F 84% 30.04 in 10.0 mi SE 6.9 mph - N/A   Scattered Clouds
6:55 AM 68.2 °F - 63.0 °F 83% 30.04 in 10.0 mi SSE 8.1 mph - N/A   Scattered Clouds
7:15 AM 69.4 °F - 63.3 °F 81% 30.05 in 10.0 mi SSE 4.6 mph - N/A   Scattered Clouds
7:35 AM 69.8 °F - 63.9 °F 81% 30.05 in 10.0 mi SSE 8.1 mph - N/A   Scattered Clouds
7:55 AM 72.0 °F - 64.8 °F 78% 30.05 in 10.0 mi SSE 8.1 mph - N/A   Scattered Clouds
8:15 AM 74.7 °F - 65.5 °F 73% 30.06 in 10.0 mi SSE 10.4 mph - N/A   Scattered Clouds
8:35 AM 77.2 °F - 65.8 °F 68% 30.07 in 10.0 mi South 12.7 mph - N/A   Scattered Clouds
8:55 AM 78.6 °F - 66.2 °F 66% 30.07 in 10.0 mi SSE 16.1 mph - N/A   Scattered Clouds
9:15 AM 80.2 °F 82.3 °F 66.2 °F 62% 30.07 in 10.0 mi SSE 19.6 mph 24.2 mph N/A   Scattered Clouds
9:35 AM 81.1 °F 83.2 °F 65.8 °F 60% 30.08 in 10.0 mi SSE 20.7 mph 28.8 mph N/A   Scattered Clouds
9:55 AM 82.8 °F 84.3 °F 64.8 °F 54% 30.09 in 10.0 mi SSE 23.0 mph 28.8 mph N/A   Scattered Clouds
10:15 AM 82.6 °F 83.9 °F 63.7 °F 53% 30.09 in 10.0 mi South 21.9 mph 27.6 mph N/A   Mostly Cloudy
10:35 AM 84.4 °F 85.4 °F 63.1 °F 49% 30.08 in 10.0 mi SSE 21.9 mph 31.1 mph N/A   Scattered Clouds
10:55 AM 84.9 °F 85.6 °F 62.4 °F 47% 30.08 in 10.0 mi South 24.2 mph 28.8 mph N/A   Scattered Clouds
11:15 AM 85.1 °F 86.1 °F 63.3 °F 48% 30.07 in 10.0 mi SSE 23.0 mph 29.9 mph N/A   Scattered Clouds
11:35 AM 84.9 °F 85.6 °F 62.4 °F 47% 30.06 in 10.0 mi SSE 24.2 mph 33.4 mph N/A   Scattered Clouds
11:55 AM 85.5 °F 86.1 °F 62.6 °F 46% 30.06 in 10.0 mi SSE 24.2 mph 29.9 mph N/A   Scattered Clouds
12:15 PM 85.6 °F 86.1 °F 62.1 °F 45% 30.05 in 10.0 mi SSE 25.3 mph 33.4 mph N/A   Scattered Clouds
12:35 PM 86.4 °F 86.5 °F 61.5 °F 43% 30.03 in 10.0 mi SSE 23.0 mph 32.2 mph N/A   Scattered Clouds
12:55 PM 86.0 °F 86.3 °F 61.7 °F 44% 30.02 in 10.0 mi SE 23.0 mph 31.1 mph N/A   Scattered Clouds
1:15 PM 86.4 °F 86.3 °F 60.8 °F 42% 30.01 in 10.0 mi SSE 25.3 mph 32.2 mph N/A   Scattered Clouds
1:35 PM 86.7 °F 86.3 °F 59.5 °F 40% 30.00 in 10.0 mi SSE 24.2 mph 31.1 mph N/A   Clear
1:55 PM 86.5 °F 86.1 °F 59.7 °F 40% 30.00 in 10.0 mi SSE 24.2 mph 33.4 mph N/A   Clear
2:15 PM 86.7 °F 86.1 °F 59.2 °F 39% 29.99 in 10.0 mi SSE 23.0 mph 29.9 mph N/A   Clear
2:35 PM 86.2 °F 85.4 °F 58.3 °F 39% 29.99 in 10.0 mi SSE 20.7 mph 29.9 mph N/A   Clear
2:55 PM 86.2 °F 85.4 °F 58.8 °F 39% 29.98 in 10.0 mi SE 24.2 mph 29.9 mph N/A   Clear
3:15 PM 86.0 °F 84.9 °F 57.0 °F 37% 29.98 in 10.0 mi SE 19.6 mph 29.9 mph N/A   Clear
3:35 PM 85.6 °F 84.7 °F 57.6 °F 38% 29.97 in 10.0 mi SSE 20.7 mph 29.9 mph N/A   Clear
3:55 PM 85.1 °F 85.0 °F 60.1 °F 43% 29.97 in 10.0 mi SE 24.2 mph 31.1 mph N/A   Clear
4:15 PM 84.2 °F 83.8 °F 58.6 °F 42% 29.97 in 10.0 mi SE 24.2 mph 29.9 mph N/A   Clear
4:35 PM 83.1 °F 83.3 °F 60.1 °F 46% 29.98 in 10.0 mi SE 24.2 mph 31.1 mph N/A   Clear
4:55 PM 82.0 °F 82.5 °F 60.8 °F 48% 29.98 in 10.0 mi SE 21.9 mph 31.1 mph N/A   Clear
5:15 PM 81.0 °F 81.7 °F 60.4 °F 50% 29.98 in 10.0 mi SE 23.0 mph 28.8 mph N/A   Clear
5:35 PM 79.7 °F - 62.1 °F 55% 29.99 in 10.0 mi SE 19.6 mph 26.5 mph N/A   Clear
5:55 PM 78.8 °F - 62.2 °F 57% 29.99 in 10.0 mi SE 16.1 mph - N/A   Clear
6:15 PM 77.9 °F - 62.2 °F 58% 29.99 in 10.0 mi SE 13.8 mph - N/A   Clear
6:35 PM 77.0 °F - 62.6 °F 61% 30.00 in 10.0 mi SE 13.8 mph - N/A   Clear
6:55 PM 76.1 °F - 62.6 °F 63% 30.01 in 10.0 mi SE 10.4 mph - N/A   Clear
7:15 PM 75.2 °F - 62.1 °F 64% 30.02 in 10.0 mi SE 9.2 mph - N/A   Clear
7:35 PM 74.3 °F - 61.7 °F 65% 30.02 in 10.0 mi SE 9.2 mph - N/A   Clear
7:55 PM 73.6 °F - 61.3 °F 65% 30.02 in 10.0 mi SE 9.2 mph - N/A   Clear
8:15 PM 73.4 °F - 61.7 °F 67% 30.02 in 10.0 mi SE 10.4 mph - N/A   Clear
8:35 PM 73.4 °F - 62.1 °F 68% 30.02 in 10.0 mi SE 10.4 mph - N/A   Clear
9:15 PM 72.1 °F - 62.1 °F 70% 30.04 in 10.0 mi SE 6.9 mph - N/A   Clear
9:35 PM 72.1 °F - 62.2 °F 71% 30.04 in 10.0 mi SE 9.2 mph - N/A   Clear
9:55 PM 71.2 °F - 62.1 °F 73% 30.03 in 10.0 mi SE 10.4 mph - N/A   Clear
10:15 PM 71.6 °F - 62.6 °F 73% 30.03 in 10.0 mi SE 10.4 mph - N/A   Clear
10:35 PM 71.6 °F - 62.8 °F 74% 30.04 in 10.0 mi SE 9.2 mph - N/A   Clear
10:55 PM 71.6 °F - 62.6 °F 73% 30.04 in 10.0 mi SE 10.4 mph - N/A   Clear
11:15 PM 71.8 °F - 62.2 °F 72% 30.03 in 10.0 mi SE 10.4 mph - N/A   Clear
11:35 PM 71.2 °F - 62.1 °F 73% 30.03 in 10.0 mi SE 9.2 mph - N/A   Clear
11:55 PM 70.9 °F - 61.9 °F 73% 30.03 in 10.0 mi SE 9.2 mph - N/A   Clear